Flag for Germany Weather past 2 weeks in Saarbrücken, Saarland, Germany

Now
54 °F

Broken clouds.


Feels Like: 51 °F
Forecast: 42 / 62 °F
Wind: 8 mph from Southwest

Location: Saarbruecken / Ensheim

Current Time: Aug 23, 2014 at 10:27:51 AM

Latest Report: Aug 23, 2014 at 9:50 AM


Visibility: N/A

Pressure: 29.98 "Hg

Humidity: 94%

Dew point: 52 °F

Location of SaarbrückenLocation

Historic Weather in Saarbrücken — Graph

°F

Saarbrücken temperature yesterday

Maximum temperature yesterday: 66 °F (at 3:20 PM)
Minimum temperature yesterday: 45 °F (at 3:50 AM)
Average temperature yesterday: 57 °F

Past Weeks' High & Low Weather Summary

 TemperatureHumidityPressure
High77 °F (Aug 8, 4:50 PM)100% (Aug 14, 3:50 AM)30.15 "Hg (Aug 14, 3:50 AM)
Low45 °F (Aug 20, 2:20 AM)42% (Aug 21, 2:20 PM)29.65 "Hg (Aug 13, 12:50 PM)
Average59 °F77%29.94 "Hg
* Reported Aug 8 9:20 AM — Aug 23 9:20 AM, Saarbrücken, Weather by CustomWeather, © 2014

Note: Actual official high and low records may vary slightly from our data, if they occured in-between our weather recording intervals... More about our weather records

Advertising

Saarbrücken weather history for previous 24 hours

 ConditionsComfort  
Time TempWeatherWind HumidityBarometerVisibility
9:20 AM
Aug 23
54 °FBroken clouds.6 mph88%29.98 "HgN/A
8:50 AM52 °FBroken clouds.6 mph94%29.98 "HgN/A
8:20 AM52 °FLight rain. Broken clouds.6 mph88%29.98 "Hg4 mi
7:50 AM52 °FDrizzle. Partly sunny.3 mph88%29.98 "HgN/A
7:20 AM52 °FPassing clouds.2 mph82%29.98 "HgN/A
6:50 AM52 °FPassing clouds.5 mph82%29.98 "HgN/A
6:20 AM52 °FPassing clouds.6 mph82%29.98 "HgN/A
5:50 AM54 °FPassing clouds.7 mph82%29.98 "HgN/A
5:20 AM52 °FPassing clouds.3 mph82%29.95 "HgN/A
4:50 AM52 °FPassing clouds.3 mph82%29.95 "HgN/A
4:20 AM52 °FClear.2 mph82%29.95 "Hg10 mi
3:50 AM52 °FClear.6 mph82%29.95 "Hg10 mi
3:20 AM52 °FClear.5 mph82%29.98 "Hg10 mi
2:50 AM52 °FClear.5 mph77%29.95 "Hg10 mi
2:20 AM54 °FClear.5 mph72%29.98 "Hg10 mi
1:50 AM54 °FClear.5 mph72%29.98 "Hg10 mi
1:20 AM55 °FClear.5 mph67%29.98 "Hg10 mi
12:50 AM55 °FClear.6 mph72%29.98 "Hg10 mi
12:20 AM55 °FClear.7 mph72%29.95 "Hg10 mi
11:50 PM
Aug 22
57 °FClear.3 mph67%29.95 "Hg10 mi
11:20 PM57 °FCool.3 mph67%29.98 "HgN/A
10:50 PM59 °FClear.6 mph63%29.98 "Hg10 mi
10:20 PM59 °FClear.7 mph63%29.95 "Hg10 mi
9:50 PM59 °FClear.5 mph63%29.95 "Hg10 mi
9:20 PM61 °FSunny.8 mph59%29.95 "Hg10 mi
8:50 PM61 °FSunny.6 mph55%29.95 "Hg10 mi
8:20 PM61 °FSunny.7 mph55%29.95 "Hg10 mi
7:50 PM63 °FSunny.7 mph52%29.95 "Hg10 mi
7:20 PM63 °FSunny.9 mph52%29.95 "Hg10 mi
6:50 PM64 °FSunny.12 mph49%29.95 "Hg10 mi
6:20 PM64 °FSunny.9 mph46%29.95 "Hg10 mi
5:50 PM66 °FSunny.10 mph46%29.95 "Hg10 mi
5:20 PM64 °FSunny.13 mph43%29.95 "Hg10 mi
4:50 PM64 °FPassing clouds.16 mph46%29.95 "HgN/A
4:20 PM64 °FBroken clouds.13 mph46%29.95 "HgN/A
3:50 PM64 °FBroken clouds.13 mph46%29.95 "HgN/A
3:20 PM66 °FPartly sunny.10 mph46%29.98 "HgN/A
2:50 PM64 °FPartly sunny.7 mph49%29.98 "HgN/A
2:20 PM63 °FBroken clouds.13 mph45%29.98 "HgN/A
1:50 PM63 °FBroken clouds.10 mph45%29.98 "HgN/A
1:20 PM64 °FBroken clouds.14 mph49%29.98 "HgN/A
12:50 PM64 °FScattered clouds.14 mph49%29.98 "HgN/A
12:20 PM63 °FScattered clouds.12 mph52%29.98 "HgN/A
11:50 AM61 °FPartly sunny.10 mph59%29.98 "HgN/A
11:20 AM61 °FPassing clouds.10 mph63%30.01 "HgN/A
10:50 AM61 °FPassing clouds.8 mph59%30.01 "HgN/A
10:20 AM59 °FPartly sunny.6 mph63%30.01 "HgN/A
Weather by CustomWeather, © 2014

See weather overviewHow to use our weather pages